PSLV R/B, 40548

Orbit data source: Space-Track

PSLV R/B, 40548 is space debris in HEO originally from a launch on Sat, 28 Mar 2015 UTC launched from the Sirharikota (SRI). Debris objects in space refer to the collection of defunct objects orbiting the Earth. Examples of debris include non-operational satellites, rocket bodies, and fragments generated from explosions, collisions, or faulty payload assembly.

Loading next visibility...
Identifier
40548, 2015-018B
Orbit
HEO
Country
Flag of ININ / IND
Related business
Manufacturer
VSSC/LPSC
Mission
Spacecraft
Bus & Motor
PS-4, Unknown motor
Mass
920 kg wet, 920 kg dry
Launch date (UTC)
2015-03-28 (10 years ago)
Launch vehicle
Unknown
Launch site
Sirharikota (SRI)
Object type
Payload
Rocket body
Debris
Shape & HBR
Cyl + Cyl + 2 Nozzle, 1.6 m
Radar Cross Section
5.812 m², Large (>1 m²)

Expand to show TLE details & history
Last TLE update: 1 day ago

TLE from 1 day ago
0 PSLV R/B
1 40548U 15018B   25259.97630843  .00012495  00000-0  16000-2 0  9999
2 40548  19.1077  50.3033 5794237 167.9717 216.2335  4.37415654156493
Epoch: 2025-09-16T23:25Z
TLE epoch observation values (Epoch: 2025-09-16T23:25:53.048Z)
Latitude
-0.00005°
Longitude
62.68119°
Altitude
17,821.544 km
Speed
2.776 km/s
True Right ascension
03h 21m 14s
True Declination
0° 00' 00"
Sunlit
Object was in daylight at epoch
Visualization orbit readout
Latitude
Unknown
Longitude
Unknown
Altitude
Unknown
Speed
Unknown
Apparent Right ascension
Unknown
Apparent Declination
Unknown
Sunlit
N/A
Visualization observer readout
Local Sidereal Time
18:28:23
Azimuth
Unknown
Elevation
Unknown
Doppler factor
Unknown
Orbital elements
Apogee altitude
18,572.986 km
Perigee altitude
265.964 km
Semi-major axis
15,797.612 km
Eccentricity
0.57942
Inclination
19.1077°
RAAN
50.3033°
Arg. of periapsis
167.9717°
True anomaly
192.07751°
Mean anomaly
216.2335°
Eccentric anomaly
203.17077°
Mean motion
1.09309 °/min
Orbital period
329.34 mins
BSTAR
0.0016
Loading maneuver chart data...
Computing Atmospheric mass density...
Loading historical data...
Loading historical data...
Loading historical data...
Loading historical data...
Loading historical data...
Loading historical data...
Loading historical data...
Other satellites on launch #18 in the year 2015 (2015-03-28 UTC)

Documentation

Showing up to 5 results
|